Regional Weather Roundup
Issued by NWS Newport/Morehead, NC

Current Version | Previous Version | Graphics & Text | Print | Product List | Glossary Off
Versions: 1 2 3 4 5 6 7 8 9 10 11 12 13 14 15 16 17 18 19 20 21 22 23 24 25 26 27 28 29 30 31 32 33 34 35 36 37 38 39 40 41 42 43 44 45 46 47 48 49 50

000
ASUS42 KMHX 221725
RWRMHX
WEATHER ROUNDUP FOR EASTERN NORTH CAROLINA
NATIONAL WEATHER SERVICE NEWPORT/MOREHEAD CITY NC
100 PM EDT SUN OCT 22 2017

NOTE: "FAIR" INDICATES FEW OR NO CLOUDS BELOW 12,000 FEET
WITH NO SIGNIFICANT WEATHER AND/OR OBSTRUCTIONS TO VISIBILITY

NCZ015>017-031-032-045>047-102-103-221800-
NORTH COAST

CITY           SKY/WX    TMP DP  RH WIND       PRES   REMARKS
EDENTON        SUNNY     78  62  58 CALM      30.35F
ELIZABETH CITY SUNNY     77  62  59 E8        30.35F
KITTY HAWK     SUNNY     74  63  69 E3        30.34F
MANTEO         MOSUNNY  N/A N/A N/A E9        30.35F

$$

NCZ045>047-081-094-103-104-221800-
CENTRAL COAST

CITY           SKY/WX    TMP DP  RH WIND       PRES   REMARKS
FRISCO         MOSUNNY   81  61  50 SE8       30.34F

$$

NCZ095-097-098-100-101-221800-
SOUTHERN COAST

CITY           SKY/WX    TMP DP  RH WIND       PRES   REMARKS
BEAUFORT       PTSUNNY   77  64  64 E7        30.33F
CEDAR ISLAND   NOT AVBL
JACKSONVILLE   SUNNY     79  64  60 E5        30.33F
PINEY ISLAND     N/A    N/A N/A N/A E10       30.33F
WILMINGTON     SUNNY     79  65  62 SE9       30.33F


$$

NCZ011>013-027>030-043-044-078>080-089-090>093-098-221800-
COASTAL PLAIN

CITY           SKY/WX    TMP DP  RH WIND       PRES   REMARKS
AHOSKIE        SUNNY     74  55  51 NE5       30.35F
CLINTON        MOSUNNY   79  62  56 SE5       30.33F
ELIZABETHTOWN  NOT AVBL
GOLDSBORO      MOSUNNY   78  59  51 SE8       30.32F HAZE
GREENVILLE     SUNNY     77  57  50 E5        30.35F
HAVELOCK       SUNNY     80  65  59 NE12      30.34F
KENANSVILLE    SUNNY     79  59  50 SE3       30.33F
KINSTON        MOSUNNY   79  59  50 CALM      30.35F
NEW BERN       MOSUNNY   78  62  57 SE7       30.35F
RICHLANDS      MOSUNNY   78  62  57 VRB6      30.34F
ROCKY MOUNT    SUNNY     76  57  51 E5        30.35F
WASHINGTON     SUNNY     77  59  52 S5        30.35F
WHITEVILLE     MOSUNNY   78  62  57 E7        30.31F

$$

AMZ130-135-150-152-154-156-158-170-250-252-270-ANZ085-086-088-633-658-670-221800-
MARINE OBSERVATIONS

STATION/POSITION TIME  TEMP    WIND        PRES    WAVE   SWELL
                       AIR SEA DIR/SP/G            HT/PER HT/PER
                 (UTC) (F)     (DEG/KT/KT) (MB)    (FT/S) (FT/S)
CHESAPEAKE LIGHT NOT AVBL
64 E VA BEACH    1650   69 69   50/  8/  8 1028.5    3/ 8   2/ 8
DUCK             1700   72 70   80/  8/  9 1027.5
2 E DUCK         1700      70                N/A     2/ 8
OREGON INLET     1700   72 70   50/  8/ 11 1027.4
13E OREGON INLT  1648      73                N/A     3/ 8   2/ 8
HATTERAS CG      1700   77 72  120/  6/  9 1027.3
DIAMOND BUOY     1650   76 81   80/  8/ 10 1027.3    3/ 8   3/ 8
CAPE LOOKOUT     1700   77     160/  2/  3 1026.7
BEAUFORT LAB     1700   76 72   80/  7/  9 1027.2
30 SE NEW RVR IN 1708   76      60/  6/  8 1026.8
30 SE NEW RVR IN NOT AVBL
27 SE WRIGHTSVLE 1708   77 76  100/  8/ 10 1026.7
5 SE WRIGHTSVLE  1708   74 74   80/ 12/ 17 1026.7
225 S CAPE HAT   1650   77 80  100/ 10/ 12 1025.8    4/ 8   3/ 8
41 SE CHARLESTON 1710   79 79  100/ 17/ 21 1023.8

$$




USA.gov is the U.S. government's official web portal to all federal, state and local government web resources and services.